TimeEDT,TemperatureF,Dew PointF,Humidity,Sea Level PressureIn,VisibilityMPH,Wind Direction,Wind SpeedMPH,Gust SpeedMPH,PrecipitationIn,Events,Conditions,WindDirDegrees,DateUTC
12:53 AM,37.9,30.9,76,29.95,10.0,WNW,11.5,-,N/A,,Overcast,290,2012-11-03 04:53:00
1:22 AM,37.4,30.2,75,29.92,10.0,WNW,12.7,-,N/A,,Overcast,290,2012-11-03 05:22:00
1:39 AM,37.4,30.2,75,29.92,10.0,WNW,11.5,-,N/A,,Overcast,300,2012-11-03 05:39:00
1:53 AM,37.9,30.9,76,29.95,10.0,WNW,10.4,-,N/A,,Overcast,300,2012-11-03 05:53:00
2:53 AM,37.9,30.9,76,29.96,10.0,NW,15.0,-,N/A,,Overcast,320,2012-11-03 06:53:00
3:53 AM,37.9,30.9,76,29.97,10.0,NW,12.7,-,N/A,,Overcast,310,2012-11-03 07:53:00
4:44 AM,37.4,30.2,75,29.94,10.0,NW,12.7,-,N/A,,Overcast,320,2012-11-03 08:44:00
4:53 AM,37.9,30.0,73,29.98,10.0,NW,10.4,-,N/A,,Overcast,320,2012-11-03 08:53:00
5:53 AM,37.0,30.0,76,30.00,10.0,NW,15.0,-,N/A,,Overcast,310,2012-11-03 09:53:00
6:18 AM,37.4,30.2,75,29.97,10.0,WNW,13.8,-,N/A,,Mostly Cloudy,300,2012-11-03 10:18:00
6:53 AM,37.0,30.0,76,30.02,10.0,WNW,13.8,-,N/A,,Overcast,300,2012-11-03 10:53:00
7:08 AM,37.4,30.2,75,29.98,10.0,NW,12.7,-,N/A,,Overcast,310,2012-11-03 11:08:00
7:53 AM,37.0,30.0,76,30.04,10.0,NW,15.0,-,N/A,,Overcast,320,2012-11-03 11:53:00
8:53 AM,37.0,30.0,76,30.05,10.0,NNW,11.5,-,N/A,,Mostly Cloudy,340,2012-11-03 12:53:00
9:53 AM,37.9,28.9,70,30.07,10.0,NNW,18.4,-,N/A,,Mostly Cloudy,330,2012-11-03 13:53:00
10:53 AM,37.9,28.9,70,30.07,10.0,NNW,15.0,23.0,N/A,,Mostly Cloudy,340,2012-11-03 14:53:00
11:53 AM,39.0,30.0,70,30.08,10.0,NNW,15.0,-,N/A,,Mostly Cloudy,340,2012-11-03 15:53:00
12:53 PM,39.9,30.0,68,30.08,10.0,NW,17.3,-,N/A,,Mostly Cloudy,310,2012-11-03 16:53:00
1:53 PM,41.0,30.0,65,30.08,10.0,NW,15.0,-,N/A,,Mostly Cloudy,310,2012-11-03 17:53:00
2:13 PM,39.2,30.2,70,30.04,10.0,NNW,13.8,-,N/A,,Mostly Cloudy,330,2012-11-03 18:13:00
2:53 PM,41.0,28.9,62,30.07,10.0,NW,17.3,-,N/A,,Mostly Cloudy,320,2012-11-03 18:53:00
3:53 PM,41.0,28.9,62,30.08,10.0,NW,18.4,-,N/A,,Mostly Cloudy,320,2012-11-03 19:53:00
4:53 PM,39.9,27.0,60,30.09,10.0,NNW,16.1,23.0,N/A,,Mostly Cloudy,330,2012-11-03 20:53:00
5:53 PM,39.0,28.0,65,30.10,10.0,NNW,15.0,-,N/A,,Mostly Cloudy,330,2012-11-03 21:53:00
6:53 PM,37.9,28.0,68,30.11,10.0,NNW,10.4,-,N/A,,Mostly Cloudy,340,2012-11-03 22:53:00
7:49 PM,37.4,30.2,75,30.08,10.0,NNW,10.4,-,0.00,Rain,Light Rain,340,2012-11-03 23:49:00
7:53 PM,37.9,28.9,70,30.12,10.0,NNW,13.8,-,0.00,Rain,Light Rain,330,2012-11-03 23:53:00
8:03 PM,37.4,28.4,70,30.08,10.0,NNW,11.5,-,0.00,,Overcast,340,2012-11-04 00:03:00
8:29 PM,37.4,28.4,70,30.09,10.0,NNW,13.8,-,0.00,,Overcast,330,2012-11-04 00:29:00
8:53 PM,37.9,27.0,65,30.13,10.0,NW,13.8,-,0.00,,Overcast,320,2012-11-04 00:53:00
9:20 PM,37.4,28.4,70,30.09,10.0,NNW,12.7,-,N/A,,Overcast,340,2012-11-04 01:20:00
9:53 PM,37.0,28.0,70,30.13,10.0,NNW,10.4,-,N/A,,Overcast,330,2012-11-04 01:53:00
10:53 PM,37.4,28.4,70,30.13,10.0,NNW,8.1,-,N/A,,Overcast,330,2012-11-04 02:53:00
11:53 PM,37.0,26.1,65,30.12,10.0,North,6.9,-,N/A,,Overcast,10,2012-11-04 03:53:00